STARLINK-36327, 67738

Orbit data source: Space-Track

STARLINK-36327, 67738 is a payload satellite owned by SpaceX/Seattle (US) in SSO that was launched on Wed, 11 Feb 2026 UTC via an FALCON 9 launch vehicle from the Air Force Western Test Range (AFWTR). Payload-class satellites include a variety of spacecraft equipped with specific instruments for various scientific and technological missions. These include communications satellites like Starlink; space stations such as the ISS; scientific satellites like the Hubble; Earth observation satellites from companies like Planet Labs, Umbra, and HawkEye 360; GPS; miniature CubeSats for education and research; and military/defense satellites.

Loading next visibility...
Identifier
67738, 2026-026T
Orbit
SSO
Country
Flag of USUS
Related business
Manufacturer
SpaceX/Seattle
Mission
Operational Commercial Communications
Bus & Motor
STARLINK V2MO, Unknown motor
Mass
575 kg wet, ~530 kg dry
Launch date (UTC)
2026-02-11 (3 months ago)
Launch vehicle
FALCON 9
Launch site
Air Force Western Test Range (AFWTR)
Object type
Payload
Rocket body
Debris
Shape & HBR
Box + 2 Pan, 17.7 m
Radar Cross Section
36.964 m²

Expand to show TLE details & history
Last TLE update: 11 hours ago

TLE from 11 hours ago
0 STARLINK-36327
1 67738U 26026T   26130.12335619  .00016120  00000-0  50063-3 0  9996
2 67738  97.2845 183.9035 0001088  88.4884 271.6483 15.33442067 13543
Epoch: 2026-05-10T02:57Z
TLE epoch observation values (Epoch: 2026-05-10T02:57:37.974Z)
Latitude
-0.00008°
Longitude
-88.43567°
Altitude
468.643 km
Speed
7.632 km/s
True Right ascension
12h 15m 36s
True Declination
0° 00' 00"
Sunlit
Object was in full shadow at epoch
Visualization orbit readout
Latitude
Unknown
Longitude
Unknown
Altitude
Unknown
Speed
Unknown
Apparent Right ascension
Unknown
Apparent Declination
Unknown
Sunlit
N/A
Visualization observer readout
Local Sidereal Time
22:08:58
Azimuth
Unknown
Elevation
Unknown
Doppler factor
Unknown
Orbital elements
Apogee altitude
463.239 km
Perigee altitude
461.75 km
Semi-major axis
6,840.632 km
Eccentricity
0.00011
Inclination
97.2845°
RAAN
183.9035°
Arg. of periapsis
88.4884°
True anomaly
271.63584°
Mean anomaly
271.6483°
Eccentric anomaly
271.64207°
Mean motion
3.83618 °/min
Orbital period
93.84 mins
BSTAR
0.00050063
Loading maneuver chart data...
Computing Atmospheric mass density...
Loading historical data...
Loading historical data...
Loading historical data...
Loading historical data...
Loading historical data...
Loading historical data...
Loading historical data...

Documentation

Showing up to 5 results
|